Location: Azul
(36.7830°S, 59.8500°W)
Time: 04:04:06
(UTC-03:00)

ISS - Pass Details

Date: 18 October 2019
Orbit: 411 x 421 km, 51.6° (Epoch: 15 October)

Event Time Altitude Azimuth Distance (km) Brightness Sun altitude
Exits shadow 04:39:04 33° 3° (N) 736 -2.8 -18.2°
Drops below altitude 10° 04:41:17 10° 29° (NNE) 1,510 -0.9 -17.8°
Sets 04:43:25 0° 35° (NE) 2,367 0.2 -17.4°
